Weather History for KLND - May, 2012

Change the Weather History Date:

Tuesday, May 22, 2012

  Actual Average Record
Temperature  
Mean Temperature 68 °F 55 °F  
Max Temperature 78 °F 69 °F 83 °F (1967)
Min Temperature 57 °F 42 °F 30 °F (1953)
Degree Days  
Heating Degree Days 0 10  
Month to date heating degree days 185 290  
Since 1 July heating degree days 6628 7544  
Cooling Degree Days 3 0  
Month to date cooling degree days 8 0  
Year to date cooling degree days 9 0  
Growing Degree Days 18 (Base 50)    
Moisture  
Dew Point 29 °F    
Average Humidity 25    
Maximum Humidity 33    
Minimum Humidity 16    
Precipitation  
Precipitation 0.00 in 0.08 in 1.46 in (1958)
Month to date precipitation 0.93 1.60  
Year to date precipitation 3.62 5.62  
Snow  
Snow 0.00 in 0.10 in - ()
Month to date snowfall 0.0 4.5  
Since 1 July snowfall 63.3 91.0  
Snow Depth 0.00 in    
Sea Level Pressure  
Sea Level Pressure 29.56 in    
Wind  
Wind Speed 15 mph (West)    
Max Wind Speed 32 mph    
Max Gust Speed 50 mph    
Visibility 10 miles    
Events      
T = Trace of Precipitation, MM = Missing Value Source: NWS Daily Summary

Daily Weather History Graph

Daily Weather History Graph

Search for Another Location

Airport or City:

Trip Planner

Search our weather history database for the weather conditions in past years. The results will help you decide how hot, cold, wet, or windy it might be!

Date:

Astronomy

May. 22, 2012 Rise Set
Actual Time 5:45 AM MDT 8:38 PM MDT
Civil Twilight 5:11 AM MDT 9:11 PM MDT
Nautical Twilight 4:29 AM MDT 9:54 PM MDT
Astronomical Twilight 3:40 AM MDT 10:43 PM MDT
Moon 6:57 AM MDT (5/22) 10:19 PM MDT (5/22)
Length of Visible Light 16h 00m
Length of Day
14h 53m
Waxing Crescent, 3% of the Moon is Illuminated
May 22
Waxing Crescent
May 28
First Quarter
Jun 4
Full
Jun 11
Last Quarter
Jun 19
New

Hourly Weather History & Observations

Time (MDT) Temp. Dew Point Humidity Pressure Visibility Wind Dir Wind Speed Gust Speed Precip Events Conditions
12:53 AM 64.9 °F 30.0 °F 27% 29.65 in 10.0 mi South 15.0 mph 20.7 mph N/A   Clear
1:53 AM 69.1 °F 27.0 °F 21% 29.60 in 10.0 mi SW 16.1 mph - N/A   Clear
2:53 AM 71.1 °F 25.0 °F 18% 29.55 in 10.0 mi South 12.7 mph - N/A   Clear
3:53 AM 64.0 °F 28.0 °F 26% 29.54 in 10.0 mi SE 16.1 mph 21.9 mph N/A   Clear
4:53 AM 64.0 °F 27.0 °F 25% 29.53 in 10.0 mi SE 11.5 mph 17.3 mph N/A   Clear
5:53 AM 63.0 °F 27.0 °F 26% 29.53 in 10.0 mi WNW 9.2 mph 19.6 mph N/A   Clear
6:53 AM 62.1 °F 28.9 °F 29% 29.57 in 10.0 mi Variable 3.5 mph - N/A   Clear
7:53 AM 66.9 °F 32.0 °F 27% 29.55 in 10.0 mi Calm Calm - N/A   Clear
8:53 AM 66.9 °F 36.0 °F 32% 29.56 in 10.0 mi ESE 10.4 mph - N/A   Clear
9:53 AM 73.9 °F 30.0 °F 20% 29.52 in 10.0 mi West 3.5 mph - N/A   Clear
10:53 AM 78.1 °F 28.9 °F 17% 29.49 in 10.0 mi NW 16.1 mph 24.2 mph N/A   Clear
11:15 AM 75.2 °F 28.4 °F 18% 29.73 in 10.0 mi West 17.3 mph 28.8 mph N/A   Clear
11:53 AM 73.0 °F 30.0 °F 20% 29.51 in 10.0 mi West 18.4 mph 38.0 mph N/A   Mostly Cloudy
12:00 PM 73.4 °F 30.2 °F 20% 29.72 in 10.0 mi WNW 5.8 mph 24.2 mph N/A   Mostly Cloudy
12:53 PM 73.0 °F 32.0 °F 22% 29.48 in 10.0 mi SSE 8.1 mph 21.9 mph N/A   Mostly Cloudy
1:53 PM 73.0 °F 28.0 °F 19% 29.47 in 10.0 mi NW 17.3 mph 26.5 mph N/A   Mostly Cloudy
2:03 PM 73.4 °F 28.4 °F 19% 29.69 in 10.0 mi WNW 19.6 mph 39.1 mph N/A   Squalls
2:53 PM 73.9 °F 26.1 °F 17% 29.45 in 10.0 mi WNW 15.0 mph 46.0 mph N/A   Squalls
3:46 PM 77.0 °F 28.4 °F 17% 29.70 in 10.0 mi WSW 17.3 mph 49.5 mph N/A   Clear
3:53 PM 75.9 °F 28.0 °F 17% 29.49 in 10.0 mi WSW 32.2 mph 44.9 mph N/A   Clear
4:53 PM 72.0 °F 32.0 °F 23% 29.51 in 10.0 mi West 27.6 mph 38.0 mph N/A   Clear
5:53 PM 66.9 °F 33.1 °F 28% 29.56 in 10.0 mi WSW 19.6 mph 28.8 mph N/A   Clear
6:53 PM 66.9 °F 32.0 °F 27% 29.55 in 10.0 mi West 20.7 mph 29.9 mph N/A   Clear
7:53 PM 63.0 °F 30.0 °F 29% 29.55 in 10.0 mi West 23.0 mph 36.8 mph N/A   Scattered Clouds
8:53 PM 61.0 °F 30.0 °F 31% 29.55 in 10.0 mi WNW 31.1 mph 39.1 mph N/A   Partly Cloudy
9:53 PM 59.0 °F 30.0 °F 33% 29.57 in 10.0 mi West 12.7 mph 24.2 mph N/A   Overcast
10:53 PM 60.1 °F 28.0 °F 30% 29.53 in 10.0 mi West 15.0 mph 19.6 mph N/A   Mostly Cloudy
11:53 PM 59.0 °F 26.1 °F 28% 29.55 in 10.0 mi WSW 11.5 mph - N/A   Partly Cloudy